Wetbulb
49.25 50.49 51.25 51.37 51.85 58.42 66.60 66.98 66.73 66.17 65.52 64.59 63.90 63.80 63.24 64.44 63.23 64.20 63.83 64.05 63.40 62.96 62.57 62.27 63.57 63.00 62.02 61.72 60.86 60.29 60.29 60.81
47.21 50.26 50.27 51.08 51.56 61.20 65.32 65.89 65.59 65.21 64.14 62.87 62.24 62.23 62.56 61.80 62.58 62.13 63.22 63.45 63.21 62.71 61.31 62.11 63.52 61.93 61.23 60.49 60.07 59.60 60.03 61.26
48.73 47.75 49.22 49.12 50.12 60.20 64.92 65.18 64.70 65.01 64.30 63.54 62.22 61.54 61.49 63.07 60.84 60.83 61.62 61.28 61.82 61.75 61.69 61.65 62.42 60.86 60.81 60.53 59.95 59.27 59.12 60.93
48.67 49.18 47.48 48.82 50.15 62.32 64.41 64.83 64.33 64.26 63.67 60.92 60.24 58.94 58.83 60.29 61.06 59.13 60.29 61.03 61.24 61.50 62.17 62.40 61.74 60.96 60.36 60.88 60.16 59.28 58.15 59.19
49.49 49.81 50.85 49.61 51.15 62.34 64.71 64.88 64.23 63.38 62.31 61.15 60.11 59.30 58.18 59.58 60.91 58.28 59.16 60.64 60.59 61.27 62.22 61.77 61.44 61.65 60.75 60.28 60.51 59.91 59.89 57.16
47.51 48.85 50.16 51.72 58.43 62.83 64.52 64.63 63.29 62.32 62.43 61.11 59.75 58.43 57.37 58.65 58.40 57.84 58.04 58.56 59.87 61.35 61.75 61.66 61.27 61.08 60.94 60.33 60.35 59.79 59.95 58.02
46.55 48.57 49.06 48.87 52.18 62.47 63.85 63.73 62.34 62.10 61.76 60.68 59.53 58.59 57.31 57.71 58.00 57.94 59.14 59.61 59.83 60.61 61.59 61.65 61.39 60.98 60.82 60.62 60.74 59.86 59.60 59.11
44.64 45.94 46.76 47.98 50.61 53.75 62.96 62.70 61.09 61.50 60.54 60.05 59.43 59.14 58.24 57.86 57.57 57.72 58.74 59.06 59.61 60.43 60.71 60.77 60.83 60.95 60.83 60.96 60.59 60.05 59.69 58.57
42.95 44.57 44.84 46.89 50.25 55.32 62.47 61.89 60.10 60.15 59.75 59.30 59.39 58.85 58.24 57.99 58.39 58.99 58.43 58.61 58.72 58.92 59.79 60.19 60.22 60.36 60.56 60.81 60.65 60.07 59.68 59.00
41.29 42.55 42.72 44.96 47.44 52.30 58.91 61.77 61.03 59.91 59.73 59.54 58.90 58.69 57.66 57.75 58.07 58.68 58.14 58.71 57.95 57.49 57.86 58.14 58.95 59.32 59.52 59.47 59.91 59.18 59.32 58.97
39.21 40.01 41.00 43.67 46.04 48.58 54.62 59.16 60.23 60.20 59.86 60.06 59.34 58.86 58.68 59.15 58.51 57.85 58.29 58.34 58.42 57.63 57.80 57.92 58.42 58.54 58.64 58.76 58.95 59.06 58.54 58.58
37.22 38.19 39.95 41.84 44.04 45.60 48.87 52.56 59.64 59.53 59.74 59.47 58.43 58.51 59.54 59.62 58.80 58.41 58.62 58.41 58.39 57.89 57.53 57.66 57.24 57.58 58.14 57.72 57.60 58.00 57.95 57.80
36.39 36.64 37.26 39.07 39.45 42.54 44.44 46.95 50.62 58.53 59.10 58.85 58.82 59.46 59.76 59.35 59.43 59.51 58.95 58.31 58.18 58.09 57.88 57.28 57.22 57.04 57.06 57.56 57.14 57.30 57.10 56.60
34.86 35.08 35.35 36.14 37.15 38.76 41.45 44.41 46.17 54.37 58.40 58.16 58.39 58.54 58.64 58.78 58.70 59.29 59.47 59.06 58.50 58.18 57.76 56.96 56.76 56.68 56.68 56.56 57.20 57.20 56.94 57.19
33.51 33.52 34.16 35.06 36.30 36.52 38.02 41.63 44.82 47.66 53.75 55.26 54.11 53.67 53.78 53.74 54.01 53.63 54.29 52.86 51.32 49.70 49.36 49.01 49.42 49.80 52.82 56.15 56.54 56.48 56.60 56.56
32.68 32.11 32.85 33.62 34.56 35.60 36.59 38.26 41.48 44.97 47.34 48.43 48.93 48.41 48.42 48.27 47.16 46.00 45.01 44.30 44.26 44.45 43.71 42.66 42.52 42.26 41.63 47.96 54.16 55.37 54.59 47.56
31.90 32.06 32.30 32.13 33.14 34.16 35.89 36.56 37.78 41.92 42.27 42.53 44.22 44.78 43.51 42.22 41.65 41.03 40.06 39.35 39.08 39.11 38.60 39.76 39.74 39.48 38.36 39.63 44.94 45.37 45.20 43.01
31.12 31.38 31.17 32.00 32.18 33.85 34.32 35.87 37.48 37.71 40.13 41.25 39.89 39.81 39.74 39.04 38.40 37.45 36.41 35.94 36.22 35.96 36.95 37.12 35.86 35.84 35.96 36.40 36.94 37.53 36.69 37.03
31.30 31.44 31.47 31.86 32.61 32.76 34.57 35.28 35.58 35.84 36.03 37.77 38.05 37.58 36.62 36.45 35.77 34.53 34.09 34.03 33.57 33.84 34.99 35.82 34.55 34.42 34.42 34.33 33.96 33.57 32.41 32.23
MSLP
999.60 999.25 998.87 998.95 999.02 999.61 1000.49 1001.25 1002.01 1003.10 1004.24 1005.02 1005.62 1005.99 1006.16 1006.69 1007.15 1007.63 1008.12 1008.52 1008.88 1009.62 1010.17 1010.57 1010.99 1011.89 1012.54 1013.03 1013.40 1013.71 1014.16 1014.64
998.89 998.56 998.40 998.24 998.24 998.85 999.65 1000.73 1001.86 1002.60 1003.78 1004.45 1005.21 1005.67 1006.34 1006.58 1007.08 1007.55 1007.87 1008.19 1008.58 1009.33 1009.83 1010.36 1010.80 1011.47 1012.05 1012.63 1013.15 1013.63 1014.33 1014.65
998.34 997.94 997.80 997.82 998.10 998.31 999.00 999.72 1000.67 1001.29 1002.08 1003.20 1003.75 1004.71 1005.70 1006.01 1006.85 1007.51 1007.64 1008.00 1008.38 1008.95 1009.40 1010.07 1010.51 1011.24 1011.91 1012.26 1012.57 1013.25 1013.88 1014.30
997.48 997.46 997.35 997.26 997.79 997.95 998.44 998.96 999.69 1000.60 1001.49 1003.03 1004.01 1004.94 1005.67 1006.34 1006.88 1007.34 1007.60 1007.88 1008.27 1008.73 1009.11 1009.67 1010.24 1010.96 1011.30 1011.65 1012.10 1012.57 1013.23 1013.80
998.84 998.70 998.15 997.84 997.23 997.03 997.56 998.16 999.05 1000.09 1000.84 1002.45 1002.90 1003.40 1004.69 1005.54 1006.23 1007.00 1007.41 1007.85 1008.28 1008.51 1008.93 1009.44 1009.95 1010.50 1010.92 1011.24 1011.60 1012.03 1012.35 1013.17
1001.17 1000.76 999.71 998.47 997.08 996.72 997.15 997.76 998.70 999.57 1000.34 1001.65 1002.57 1003.49 1004.36 1005.06 1006.08 1006.93 1007.29 1007.70 1008.08 1008.31 1008.72 1009.20 1009.59 1010.02 1010.51 1011.06 1011.29 1011.62 1011.91 1012.23
1002.69 1002.27 1000.56 999.40 998.40 997.58 997.65 997.92 998.50 999.63 1000.48 1001.20 1001.99 1003.11 1004.02 1004.83 1005.85 1006.75 1007.19 1007.61 1007.87 1008.03 1008.42 1008.83 1009.23 1009.64 1010.04 1010.50 1010.93 1011.32 1011.50 1011.78
1003.81 1003.24 1001.62 1000.56 999.66 998.52 998.15 998.50 998.81 999.45 1000.30 1001.10 1001.79 1002.81 1003.52 1004.15 1005.35 1006.26 1006.79 1007.25 1007.46 1007.66 1008.18 1008.58 1008.89 1009.26 1009.59 1010.04 1010.35 1010.78 1011.04 1011.25
1004.89 1004.50 1002.81 1001.67 1000.30 998.60 997.73 998.92 999.55 999.62 1000.13 1001.10 1001.87 1002.62 1003.27 1003.89 1004.92 1005.73 1006.52 1006.84 1006.94 1007.40 1007.89 1008.28 1008.61 1008.87 1009.30 1009.59 1009.75 1010.19 1010.41 1010.94
1006.24 1004.94 1003.48 1002.61 1001.28 999.88 998.82 998.40 998.91 999.63 1000.00 1000.57 1001.37 1002.10 1002.64 1003.83 1004.59 1005.30 1006.09 1006.41 1006.89 1007.20 1007.75 1008.18 1008.45 1008.71 1008.91 1008.93 1008.85 1009.18 1009.95 1010.34
1006.71 1005.73 1004.69 1004.03 1002.89 1001.36 1000.06 999.37 999.38 999.62 1000.15 1000.52 1001.24 1001.75 1002.15 1003.33 1004.24 1005.20 1005.83 1006.22 1006.91 1007.25 1007.72 1008.11 1008.40 1008.47 1008.60 1008.67 1008.54 1008.75 1009.21 1010.03
1007.77 1006.86 1006.08 1005.34 1004.12 1002.68 1001.70 1000.49 999.95 1000.71 1000.93 1000.88 1001.34 1002.02 1002.47 1003.18 1004.30 1005.09 1005.47 1006.16 1006.85 1007.26 1007.59 1007.86 1007.99 1008.17 1008.32 1008.36 1008.35 1008.69 1009.20 1009.84
1008.95 1008.08 1007.26 1006.46 1005.42 1004.03 1002.49 1001.94 1001.94 1000.61 1001.61 1001.29 1001.59 1002.08 1002.87 1003.61 1004.33 1004.90 1005.45 1006.27 1006.82 1007.19 1007.54 1007.76 1007.89 1008.12 1008.20 1008.21 1008.40 1008.73 1009.04 1009.78
1009.51 1008.73 1008.17 1007.60 1006.90 1006.05 1005.11 1004.19 1002.95 1002.43 1002.09 1001.77 1002.02 1002.69 1003.43 1004.07 1004.35 1005.06 1005.72 1006.35 1006.99 1007.30 1007.56 1007.76 1007.93 1008.14 1008.32 1008.33 1008.31 1008.69 1009.18 1009.65
1010.66 1010.25 1009.73 1009.28 1008.67 1007.88 1006.86 1005.84 1005.05 1004.30 1002.49 1002.30 1002.54 1003.30 1004.30 1004.83 1005.19 1005.95 1006.54 1007.07 1007.65 1008.02 1008.28 1008.41 1008.43 1008.51 1008.48 1008.50 1008.55 1008.76 1009.15 1009.88
1011.68 1011.51 1011.03 1010.57 1009.94 1009.21 1008.54 1007.63 1006.37 1005.29 1004.50 1004.16 1003.80 1004.42 1004.99 1005.61 1006.06 1007.02 1007.69 1008.23 1008.86 1009.12 1009.26 1009.46 1009.56 1009.51 1009.57 1009.21 1008.88 1009.27 1009.80 1010.88
1012.87 1012.64 1011.94 1011.23 1010.87 1010.43 1009.64 1008.84 1007.90 1007.00 1006.46 1005.88 1005.83 1005.76 1006.18 1006.71 1007.06 1007.93 1008.47 1009.42 1009.99 1010.18 1010.48 1010.56 1010.49 1010.55 1010.37 1009.88 1009.59 1010.27 1010.97 1011.71
1014.08 1013.59 1013.18 1012.75 1012.22 1011.49 1010.73 1010.13 1009.31 1008.68 1008.19 1007.90 1007.79 1007.56 1007.85 1008.39 1008.58 1008.94 1009.36 1010.33 1011.00 1011.32 1011.43 1011.52 1011.75 1011.82 1011.43 1011.23 1011.05 1011.67 1012.30 1012.94
1015.17 1014.82 1014.27 1013.93 1013.21 1012.67 1012.05 1011.48 1010.79 1010.39 1010.12 1009.82 1009.43 1009.36 1009.65 1009.94 1010.18 1010.63 1010.86 1011.29 1011.87 1012.30 1012.51 1012.67 1012.73 1013.10 1013.00 1012.48 1012.43 1013.08 1013.71 1014.39
Wind_Speed
15 11 14 16 16 13 19 16 17 14 10 7 5 5 5 6 6 7 10 8 10 8 7 9 9 8 7 7 8 3 4 6
11 12 10 13 13 14 18 17 15 14 11 11 8 9 6 5 3 6 8 9 11 10 6 8 9 8 9 9 6 9 4 5
19 11 9 9 10 15 19 20 20 17 13 10 6 9 4 5 4 4 5 7 7 9 10 9 9 7 10 10 9 6 4 7
21 17 10 10 9 15 19 21 21 16 15 9 6 5 5 3 5 4 4 7 7 8 9 9 9 8 9 10 9 12 8 5
13 10 11 10 9 17 21 21 22 16 18 12 17 13 12 6 6 3 4 6 7 9 9 9 9 8 9 9 9 8 8 9
19 16 13 12 4 15 18 20 19 18 17 14 12 11 5 6 5 7 5 5 6 8 10 11 10 7 7 9 9 9 8 9
18 16 14 15 12 4 12 19 18 17 15 16 16 15 11 10 8 7 6 5 5 7 8 8 8 8 10 9 11 11 10 10
18 20 18 16 13 9 9 14 16 17 17 16 15 14 13 14 11 7 7 7 5 7 8 8 8 9 9 10 10 10 12 12
17 17 15 16 17 6 13 10 7 14 15 14 13 12 8 8 9 8 7 6 6 6 5 6 7 8 9 11 10 10 10 11
16 17 17 17 17 16 3 15 17 14 15 14 12 12 12 9 9 9 6 5 4 6 4 5 6 7 8 9 9 11 12 13
16 16 18 16 15 14 12 5 8 12 14 13 11 12 12 11 10 9 8 6 7 7 7 7 8 7 8 8 8 10 12 10
15 15 15 15 15 16 11 13 8 4 4 8 10 9 10 11 9 8 8 8 7 8 8 6 5 5 5 6 5 8 13 10
13 14 15 15 16 17 17 16 12 8 2 8 9 11 9 9 8 8 8 8 7 7 6 6 5 4 4 6 8 7 12 11
14 15 16 16 17 16 15 13 11 10 2 7 11 9 7 6 8 8 7 7 5 5 5 5 5 5 4 4 6 10 8 11
14 13 14 14 14 15 15 14 13 11 7 8 12 11 10 8 10 10 9 9 8 7 7 6 5 5 4 3 6 7 8 7
15 14 13 13 13 13 14 14 14 14 11 8 10 10 10 10 12 10 10 11 9 8 8 7 6 6 4 4 4 6 8 11
15 14 15 16 14 13 12 14 15 13 13 13 11 10 11 10 12 11 12 11 10 10 9 8 8 6 8 9 10 11 11 11
13 13 13 12 14 13 13 12 12 15 14 13 13 13 12 10 11 13 13 12 10 10 10 10 11 10 17 17 17 11 11 10
9 9 10 11 13 14 12 11 12 12 14 14 15 15 14 13 13 13 13 11 11 9 10 10 11 11 17 19 21 14 13 12
Wind_Direction
259 248 249 236 224 177 178 179 181 162 157 147 139 143 147 149 157 170 174 171 164 169 172 164 167 172 178 187 183 165 169 172
246 245 239 236 232 174 172 167 170 157 164 162 163 169 169 155 155 168 178 175 172 171 158 159 163 173 187 183 165 164 162 170
266 247 239 229 204 183 170 172 171 177 164 179 164 158 161 150 139 184 178 166 169 167 164 171 171 169 180 180 171 168 160 175
263 251 230 226 184 174 174 173 176 172 152 137 116 97 88 113 176 186 188 166 162 163 173 174 173 185 187 182 182 179 181 168
349 356 349 321 206 184 178 175 171 166 153 155 164 168 163 173 180 157 170 164 166 163 170 173 173 182 184 190 180 183 171 174
349 346 342 334 267 183 180 171 167 163 159 161 160 154 143 139 144 167 177 171 165 168 173 179 179 184 179 196 187 179 177 168
345 343 350 350 350 198 176 170 169 157 160 161 158 154 152 149 157 172 183 190 186 173 179 181 180 187 188 190 190 188 179 176
343 347 358 350 337 309 179 181 159 166 162 161 156 157 155 154 161 170 172 186 187 179 180 187 191 194 191 190 189 195 186 173
343 338 357 351 340 270 166 183 169 162 158 159 156 156 153 146 157 162 183 184 165 152 163 181 195 193 198 200 198 190 186 174
339 345 0 354 352 355 237 170 178 165 163 157 157 155 144 152 155 159 171 161 154 150 171 207 208 209 205 212 205 177 181 168
351 356 355 355 351 349 7 20 179 167 157 158 157 158 148 154 147 159 163 139 154 156 183 199 211 201 202 203 183 168 165 165
355 356 358 354 357 2 357 23 57 89 173 146 136 141 141 142 150 157 153 151 164 174 191 181 172 183 185 185 175 162 178 158
0 2 2 4 4 0 10 24 5 56 274 142 130 120 128 143 146 141 141 164 170 174 172 177 170 168 174 181 184 175 165 171
10 9 12 6 7 5 8 17 8 347 313 140 114 101 111 113 118 125 134 142 146 158 162 174 171 164 165 161 165 175 158 174
20 14 11 7 6 8 6 2 5 358 0 98 94 91 93 86 76 72 72 80 82 74 64 63 64 69 81 158 150 139 146 146
19 16 11 9 8 11 10 10 8 10 24 35 74 88 86 86 84 79 73 66 68 67 77 62 54 55 30 21 123 129 108 91
12 16 13 10 5 4 14 12 17 24 27 34 40 64 71 75 84 84 79 69 63 61 53 51 48 46 31 43 94 94 91 103
9 14 20 14 2 358 7 16 26 32 38 35 42 49 57 58 78 82 79 76 66 58 58 62 56 51 64 66 74 79 81 78
15 8 16 18 16 5 6 14 34 38 38 40 43 49 51 55 61 64 71 74 72 66 59 63 70 61 65 76 81 79 76 67